Weather reports worldwide

Advertisment
Madridejos, Spain (8273): temperature & dewpoint: 14.06.2019 06:00:00 - 20.06.2019 06:00:00 (CEST)Madridejos, Spain (8273): wind speed & gusts: 14.06.2019 06:00:00 - 20.06.2019 06:00:00 (CEST)Madridejos, Spain (8273): wind direction: 14.06.2019 06:00:00 - 20.06.2019 06:00:00 (CEST)Madridejos, Spain (8273): reduced air pressure: 14.06.2019 06:00:00 - 20.06.2019 06:00:00 (CEST)Madridejos, Spain (8273): visibility: 14.06.2019 06:00:00 - 20.06.2019 06:00:00 (CEST)Madridejos, Spain (8273): sunshine duration: 14.06.2019 06:00:00 - 20.06.2019 06:00:00 (CEST)Madridejos, Spain (8273): precipitation: 14.06.2019 06:00:00 - 20.06.2019 06:00:00 (CEST)
Date & Time tt [°C] td [°C] ff [km/h] ff [kn] fx [km/h] fx [kn] dd ppp [hPa] vv [km] sd [min] rr [mm]
20.06.2019 06:00:00 - - - - - - - - - - -
20.06.2019 05:00:00 15,4 6,7 6 3 19 10 WSW 1013,6 20 0 0,0
20.06.2019 04:00:00 15,7 6,7 3 2 - - WNW 1013,8 20 - -
20.06.2019 03:00:00 16,4 5,9 8 4 20 11 E 1013,9 20 0 0,0
20.06.2019 02:00:00 18,2 7,0 5 3 21 11 SW 1013,6 20 0 -
20.06.2019 01:00:00 19,1 7,1 5 3 9 5 WNW 1013,2 20 0 0,0
20.06.2019 00:00:00 20,2 7,3 6 3 - - NNW 1012,8 20 0 0,0
19.06.2019 23:00:00 21,6 5,9 - - - - - 1012,0 20 0 0,0
19.06.2019 22:00:00 23,4 5,8 25 13 45 24 W 1011,1 20 5 0,0
19.06.2019 21:00:00 25,3 5,9 23 12 - - W 1010,6 20 60 0,0
19.06.2019 20:00:00 27,0 6,4 - - - - - 1009,9 20 60 -
19.06.2019 19:00:00 27,9 5,5 - - - - - 1009,6 20 59 0,0
19.06.2019 18:00:00 28,1 6,2 - - - - - 1009,7 20 59 0,0
19.06.2019 17:00:00 28,3 6,4 16 8 - - WSW 1009,8 20 60 0,0
19.06.2019 16:00:00 - - - - - - - - - - -
19.06.2019 15:00:00 - - - - - - - - - - -
19.06.2019 14:00:00 25,9 7,4 17 9 36 20 WSW 1012,3 20 60 -
19.06.2019 13:00:00 24,4 8,4 15 8 32 17 SW 1012,8 20 60 0,0
19.06.2019 12:00:00 22,8 8,9 14 8 29 16 WSW 1013,2 20 60 0,0
19.06.2019 11:00:00 - - - - - - - - - - -
19.06.2019 10:00:00 - - - - - - - - - - -
19.06.2019 09:00:00 - - - - - - - - - - -
19.06.2019 08:00:00 - - - - - - - - - - -
19.06.2019 07:00:00 - - - - - - - - - - -
19.06.2019 06:00:00 - - - - - - - - - - -
19.06.2019 05:00:00 - - - - - - - - - - -
19.06.2019 04:00:00 - - - - - - - - - - -
19.06.2019 03:00:00 - - - - - - - - - - -
19.06.2019 02:00:00 - - - - - - - - - - -
19.06.2019 01:00:00 - - - - - - - - - - -
19.06.2019 00:00:00 - - - - - - - - - - -
18.06.2019 23:00:00 - - - - - - - - - - -
18.06.2019 22:00:00 - - - - - - - - - - -
18.06.2019 21:00:00 - - - - - - - - - - -
18.06.2019 20:00:00 - - - - - - - - - - -
18.06.2019 19:00:00 30,0 -2,5 - - - - - 1008,3 20 60 0,0
18.06.2019 18:00:00 30,5 -2,2 24 13 - - SW 1008,1 20 60 0,0
18.06.2019 17:00:00 30,1 -1,4 21 12 45 25 WSW 1008,4 20 60 0,0
18.06.2019 16:00:00 30,1 -1,4 26 14 57 31 SW 1009,1 20 60 0,0
18.06.2019 15:00:00 29,9 -0,5 22 12 48 26 WSW 1009,4 20 60 0,0
18.06.2019 14:00:00 28,4 1,1 18 10 48 26 SSW 1010,4 20 60 -
18.06.2019 13:00:00 27,5 2,5 18 10 38 20 SSW 1011,0 20 60 0,0
18.06.2019 12:00:00 26,0 1,3 16 9 36 19 SSW 1011,7 20 60 0,0
18.06.2019 11:00:00 23,9 2,1 21 12 - - SW 1012,2 20 - -
18.06.2019 10:00:00 - - - - - - - - - - -
18.06.2019 09:00:00 22,0 -2,7 - - - - - 1012,7 20 38 0,0
18.06.2019 08:00:00 19,5 -4,2 14 8 - - WSW 1013,1 20 0 -
18.06.2019 07:00:00 18,6 -2,5 - - - - - 1012,9 20 0 0,0
18.06.2019 06:00:00 20,7 -3,9 - - - - - 1012,2 20 0 0,0
18.06.2019 05:00:00 19,9 -3,9 3 1 9 5 SSW 1012,3 20 0 0,0
18.06.2019 04:00:00 20,4 -3,3 7 4 11 6 WSW 1012,4 20 0 0,0
18.06.2019 03:00:00 20,8 -3,6 4 2 13 7 W 1012,7 20 0 0,0
18.06.2019 02:00:00 21,6 -3,9 7 4 15 8 WNW 1012,4 20 0 -
18.06.2019 01:00:00 24,3 -4,2 - - - - - 1011,4 20 0 0,0
18.06.2019 00:00:00 25,7 -3,9 - - - - - 1011,0 20 0 0,0
17.06.2019 23:00:00 26,8 -3,9 - - - - - 1010,3 20 0 0,0
17.06.2019 22:00:00 28,4 -1,7 - - - - - 1009,5 20 0 0,0
17.06.2019 21:00:00 29,7 -1,7 13 7 - - SW 1008,9 20 41 0,0
17.06.2019 20:00:00 30,9 -2,0 - - - - - 1008,4 20 60 -
17.06.2019 19:00:00 31,1 -0,5 - - - - - 1008,6 20 60 0,0
17.06.2019 18:00:00 31,0 -1,7 14 8 31 17 SSW 1009,2 20 60 0,0
17.06.2019 17:00:00 31,1 -1,7 14 7 33 18 S 1009,7 20 60 0,0
17.06.2019 16:00:00 30,7 -1,0 13 7 44 24 S 1010,4 20 60 0,0
17.06.2019 15:00:00 29,7 0,2 8 5 26 14 WSW 1011,4 20 60 0,0
17.06.2019 14:00:00 28,7 0,4 8 4 21 12 SSE 1012,7 20 60 -
17.06.2019 13:00:00 27,5 1,1 5 3 - - W 1013,4 20 - -
17.06.2019 12:00:00 - - - - - - - - - - -
17.06.2019 11:00:00 24,9 1,1 5 3 13 7 SSE 1014,7 20 60 0,0
17.06.2019 10:00:00 21,8 1,9 6 4 22 12 SSW 1015,5 20 60 0,0
17.06.2019 09:00:00 19,7 2,1 10 6 20 11 WSW 1015,9 20 60 0,0
17.06.2019 08:00:00 15,6 1,3 9 5 19 10 W 1016,8 20 41 -
17.06.2019 07:00:00 14,4 0,0 4 2 18 10 SW 1016,6 20 0 0,0
17.06.2019 06:00:00 14,8 -1,0 11 6 17 9 WSW 1016,4 20 0 0,0
17.06.2019 05:00:00 15,1 -1,4 7 4 14 8 SW 1016,4 20 0 0,0
17.06.2019 04:00:00 16,0 -1,2 10 5 21 11 WSW 1016,1 20 0 0,0
17.06.2019 03:00:00 17,1 -1,7 9 5 21 12 SW 1016,1 20 0 0,0
17.06.2019 02:00:00 17,3 -2,5 9 5 20 11 SW 1016,2 20 0 -
17.06.2019 01:00:00 18,7 -3,6 10 5 27 15 WSW 1015,9 20 0 0,0
17.06.2019 00:00:00 21,0 -2,7 13 7 28 15 W 1015,1 20 0 0,0
16.06.2019 23:00:00 24,9 -4,5 6 3 30 16 S 1013,6 20 0 0,0
16.06.2019 22:00:00 26,1 -3,6 4 2 13 7 SE 1012,5 20 13 0,0
16.06.2019 21:00:00 28,8 -4,8 8 5 23 12 W 1011,5 20 52 0,0
16.06.2019 20:00:00 28,5 -4,8 13 7 40 22 WSW 1011,6 20 43 -
16.06.2019 19:00:00 29,9 -3,9 6 3 34 19 WNW 1011,1 20 50 0,0
16.06.2019 18:00:00 29,2 -4,5 9 5 28 15 W 1011,6 20 23 0,0
16.06.2019 17:00:00 28,8 -4,8 13 7 30 16 N 1011,9 20 18 0,0
16.06.2019 16:00:00 28,8 -1,4 11 6 29 15 SSW 1012,3 20 52 0,0
16.06.2019 15:00:00 29,0 0,6 6 3 18 10 WNW 1012,9 20 60 0,0
16.06.2019 14:00:00 26,5 2,5 4 2 23 12 S 1014,4 20 60 -
16.06.2019 13:00:00 24,7 3,4 8 5 30 16 SE 1015,2 20 60 0,0
16.06.2019 12:00:00 23,1 5,0 12 6 32 18 ESE 1015,8 20 60 0,0
16.06.2019 11:00:00 20,7 4,6 15 8 39 21 ESE 1016,5 20 60 0,0
16.06.2019 10:00:00 18,5 3,6 15 8 35 19 ESE 1017,2 20 60 0,0
16.06.2019 09:00:00 15,8 0,0 1 1 19 11 E 1017,9 20 60 0,0
16.06.2019 08:00:00 10,9 -2,2 4 2 7 4 E 1018,9 20 35 -
16.06.2019 07:00:00 10,0 -2,7 4 2 11 6 E 1018,7 20 0 0,0
16.06.2019 06:00:00 10,8 -1,7 1 1 12 6 W 1018,2 20 0 0,0
16.06.2019 05:00:00 10,9 -2,5 3 1 19 10 WSW 1018,3 20 0 0,0
16.06.2019 04:00:00 13,0 -2,2 9 5 17 9 NNE 1018,3 20 0 0,0
16.06.2019 03:00:00 14,0 -2,0 5 3 11 6 SSW 1018,4 20 0 0,0
16.06.2019 02:00:00 13,9 -2,5 5 3 21 11 WSW 1018,4 20 0 -
16.06.2019 01:00:00 16,3 -1,7 9 5 22 12 N 1018,1 20 0 0,0
16.06.2019 00:00:00 16,7 -2,5 11 6 24 13 W 1017,9 20 0 0,0
15.06.2019 23:00:00 19,6 -1,4 9 5 23 13 N 1016,6 20 0 0,0
15.06.2019 22:00:00 22,5 -1,0 8 4 33 18 N 1015,1 20 29 0,0
15.06.2019 21:00:00 25,1 -1,0 5 3 21 12 SE 1013,8 20 60 0,0
15.06.2019 20:00:00 25,2 -0,7 5 3 22 12 ESE 1013,6 20 60 -
15.06.2019 19:00:00 26,0 -1,0 6 4 29 16 SSE 1013,4 20 60 0,0
15.06.2019 18:00:00 25,6 0,2 9 5 29 16 S 1013,8 20 60 0,0
15.06.2019 17:00:00 24,2 1,1 8 5 27 15 E 1014,7 20 60 0,0
15.06.2019 16:00:00 23,4 1,7 8 5 24 13 NW 1015,4 20 60 0,0
15.06.2019 15:00:00 22,6 1,5 10 5 38 20 SSW 1016,1 20 60 0,0
15.06.2019 14:00:00 21,7 1,3 14 8 28 15 NW 1016,9 20 60 -
15.06.2019 13:00:00 19,4 2,3 13 7 28 15 N 1017,8 20 60 0,0
15.06.2019 12:00:00 18,0 2,3 8 4 21 12 N 1018,3 20 60 0,0
15.06.2019 11:00:00 16,3 3,4 7 4 22 12 N 1018,8 20 60 0,0
15.06.2019 10:00:00 15,3 3,8 8 5 19 10 NW 1018,9 20 60 0,0
15.06.2019 09:00:00 13,6 2,9 3 2 10 5 SW 1019,0 20 60 0,0
15.06.2019 08:00:00 10,2 1,5 5 3 18 10 E 1019,7 20 46 -
15.06.2019 07:00:00 8,8 1,5 4 2 24 13 E 1019,5 20 0 0,0
15.06.2019 06:00:00 9,3 1,3 10 5 31 17 WNW 1018,7 20 0 0,0
15.06.2019 05:00:00 9,6 1,1 8 4 13 7 W 1018,7 20 0 0,0
15.06.2019 04:00:00 11,0 1,5 7 4 11 6 WNW 1018,2 20 0 0,0
15.06.2019 03:00:00 13,0 1,9 7 4 18 10 W 1017,8 20 0 0,0
15.06.2019 02:00:00 14,1 2,1 13 7 22 12 WSW 1017,1 20 0 -
15.06.2019 01:00:00 15,1 1,9 12 7 23 12 WSW 1017,0 20 0 0,0
15.06.2019 00:00:00 16,3 1,5 14 7 31 17 WSW 1015,8 20 0 0,0
14.06.2019 23:00:00 17,2 0,9 16 8 44 24 W 1014,6 20 0 0,0
14.06.2019 22:00:00 18,7 0,2 19 11 49 26 W 1013,4 20 25 0,0
14.06.2019 21:00:00 21,2 0,4 24 13 47 25 W 1011,9 20 60 0,0
14.06.2019 20:00:00 22,9 0,0 22 12 45 24 WSW 1010,7 20 60 -
14.06.2019 19:00:00 23,6 0,0 24 13 46 25 WSW 1009,9 20 60 0,0
14.06.2019 18:00:00 24,7 -0,5 19 10 44 24 WSW 1009,6 20 60 0,0
14.06.2019 17:00:00 24,7 -0,5 23 12 45 24 WSW 1009,7 20 60 0,0
14.06.2019 16:00:00 24,4 1,3 21 12 49 26 SW 1009,8 20 60 0,0
14.06.2019 15:00:00 24,1 1,1 26 14 58 31 WSW 1009,8 20 60 0,0
14.06.2019 14:00:00 23,9 -0,5 26 14 48 26 SW 1010,0 20 60 -
14.06.2019 13:00:00 23,1 0,9 24 13 46 25 SW 1009,9 20 60 0,0
14.06.2019 12:00:00 21,7 1,9 19 10 47 25 SW 1010,0 20 59 0,0
14.06.2019 11:00:00 21,0 2,3 21 11 43 23 SW 1010,2 20 60 0,0
14.06.2019 10:00:00 20,1 2,9 16 8 29 16 WSW 1010,3 20 60 0,0
14.06.2019 09:00:00 17,8 0,4 5 3 16 9 SW 1010,6 20 60 0,0
14.06.2019 08:00:00 14,5 0,0 4 2 19 11 S 1011,0 20 7 -
14.06.2019 07:00:00 14,5 0,6 15 8 23 12 W 1010,5 20 0 0,0
14.06.2019 06:00:00 14,9 8,4 6 3 16 9 SW 1009,7 20 0 0,0

tt = temperature
td = dewpoint
ff = wind speed
fx = gusts
dd = wind direction
ppp = reduced air pressure
vv = visibility
sd = sunshine duration
rr = precipitation

Next stations